Wind_Speed
14 14 14 12 11 12 11 8 8 6 6 5 6 6 5 5 7 8 7 7 9 13 16 11 13 12 13 11 11 13 17 19 20 19 19 19 20 20 21 19 19 18 18 16 18 18 18 17 18
13 14 13 12 14 8 8 9 8 9 9 8 6 5 5 5 6 8 8 12 14 13 12 11 13 13 13 11 13 15 18 19 20 19 20 21 22 22 20 21 23 21 19 17 17 19 20 19 19
14 10 12 11 11 8 7 8 10 10 10 10 7 7 6 6 7 7 10 13 15 15 13 12 13 14 14 13 14 16 18 18 19 20 20 21 21 21 21 22 23 23 23 20 18 18 19 20 20
13 8 12 10 8 9 9 8 8 11 11 10 8 6 7 8 6 6 5 11 13 16 15 13 15 15 15 15 17 18 19 20 21 21 22 21 21 20 20 20 21 21 22 22 22 22 19 17 19
10 8 11 11 8 9 8 6 8 10 11 7 7 4 8 8 12 13 14 13 14 18 17 14 18 16 17 18 19 20 20 21 22 21 21 20 19 18 18 18 18 19 20 24 21 21 22 22 20
8 9 9 10 9 7 7 7 11 12 14 11 10 6 9 11 11 12 15 20 18 20 18 17 18 18 19 20 21 20 21 22 21 21 20 19 18 17 17 16 16 17 18 20 21 20 20 20 21
9 9 7 7 7 7 7 10 12 14 16 14 13 10 10 10 12 11 11 15 18 19 19 16 15 18 20 21 21 22 22 22 21 20 19 19 19 17 15 14 15 15 16 17 18 18 19 18 20
6 9 8 6 5 7 8 10 13 15 15 13 14 10 12 9 12 12 11 13 17 18 19 16 15 19 20 20 21 22 23 22 20 21 20 18 17 16 13 14 13 14 15 14 15 16 16 16 15
7 8 5 4 3 1 5 7 13 13 13 11 13 10 13 9 12 12 10 11 13 14 17 16 15 18 20 22 23 23 22 20 19 18 16 15 14 13 12 12 10 11 11 12 13 13 13 13 12
10 7 3 2 1 2 2 6 10 11 10 9 11 9 9 11 9 11 13 13 11 12 15 15 15 17 18 20 21 21 20 18 16 13 12 11 11 9 8 7 9 9 12 11 12 12 11 10 10
6 5 2 5 4 1 2 6 8 10 10 9 9 9 7 8 9 12 12 13 13 14 15 13 15 17 18 18 17 16 15 14 13 11 9 10 9 5 4 5 11 10 9 8 9 8 9 10 8
8 5 4 7 5 4 5 6 9 7 8 9 6 7 8 6 8 8 13 12 12 15 15 15 15 16 16 15 15 15 14 12 10 9 9 10 8 9 13 13 11 9 7 6 6 6 6 8 7
8 7 5 6 8 6 6 7 8 5 4 5 6 5 5 8 8 9 9 11 12 11 11 13 15 16 17 15 15 15 15 13 12 12 12 10 10 12 10 11 10 9 8 6 4 4 3 5 5
3 2 3 5 7 7 6 4 5 4 2 3 5 4 3 3 7 8 9 10 11 13 12 12 13 14 14 16 17 17 15 15 14 13 11 8 14 12 12 9 7 4 3 2 2 3 2 1 1
2 2 3 5 6 3 6 6 4 6 2 1 2 4 4 3 3 5 8 9 10 10 12 13 14 15 15 14 14 15 15 14 13 12 11 11 14 12 11 9 8 8 7 6 7 6 5 4 4
1 2 5 7 5 7 5 4 2 3 4 3 1 1 2 3 5 6 6 9 12 13 12 12 13 15 16 16 16 15 15 14 14 14 13 13 12 12 10 10 11 11 11 11 11 10 9 10 8
6 6 9 8 7 10 10 10 5 5 4 5 4 3 1 1 3 6 10 9 11 12 13 14 15 15 17 17 16 16 17 16 15 14 15 14 14 15 15 15 15 14 14 14 14 15 13 13 13
7 9 3 2 6 5 5 9 7 7 7 6 7 4 2 2 4 6 8 12 13 13 13 14 17 18 17 18 19 17 19 18 18 18 18 18 18 18 19 19 19 17 16 17 17 16 16 16 15
8 11 8 4 3 3 2 3 3 2 5 8 7 7 4 3 4 5 8 10 13 17 17 17 18 21 22 23 23 24 24 24 23 23 23 23 22 23 23 23 22 20 18 18 20 18 18 21 17
8 8 8 8 8 5 2 3 1 4 7 11 8 7 10 9 10 9 9 10 15 15 18 21 21 22 24 25 26 25 24 23 24 25 26 27 27 26 27 26 25 22 23 23 22 21 18 10 11
7 3 6 8 7 5 2 2 6 8 9 6 6 9 11 13 15 16 17 16 15 18 18 19 25 27 26 27 27 27 27 29 30 31 32 30 29 29 29 29 27 27 28 27 28 30 20 10 13
4 5 6 5 4 3 2 1 5 6 6 9 10 12 15 16 19 22 24 23 20 21 23 20 20 25 30 30 30 31 32 33 35 33 29 29 30 30 30 31 31 30 31 33 38 32 22 13 15
6 8 9 11 12 10 5 2 12 13 15 14 15 16 19 21 21 23 26 28 25 26 22 23 24 26 26 30 33 35 35 36 35 32 28 30 30 31 31 31 29 33 34 33 32 22 12 17 17
10 9 8 10 9 7 12 9 3 17 16 18 19 19 20 20 21 23 27 30 27 28 28 28 26 26 27 30 33 34 36 35 34 28 30 29 31 32 34 35 35 35 32 24 28 28 14 16 19
9 9 8 6 8 8 12 10 10 19 20 22 21 19 19 20 17 17 19 23 27 28 29 32 32 32 35 22 34 37 34 32 30 31 31 32 35 37 36 40 38 39 38 24 23 19 18 21 22
8 8 6 8 9 11 16 11 9 14 19 22 23 22 20 20 19 21 23 20 21 25 31 31 37 38 39 35 45 35 31 32 33 36 38 35 42 44 43 46 48 52 44 38 28 12 23 23 26
8 10 12 14 12 15 10 18 14 19 20 19 22 24 23 22 22 23 20 18 18 17 24 28 38 37 36 25 33 27 35 35 38 32 35 45 45 50 34 35 47 43 46 40 19 18 24 26 26
11 13 15 16 17 17 16 21 17 24 23 21 21 25 28 26 26 26 20 18 19 19 23 26 35 25 15 18 22 29 35 38 37 36 36 40 33 14 23 21 16 17 20 23 16 15 22 25 28
15 18 19 20 20 22 24 17 25 27 26 24 25 23 29 29 29 28 23 21 21 20 21 23 26 19 17 23 26 33 28 25 21 25 19 16 14 16 16 20 29 28 15 16 19 22 24 25 26
15 18 21 21 22 23 30 26 33 31 33 29 25 26 27 29 29 27 26 26 25 21 21 22 24 22 23 30 32 33 30 28 30 21 18 21 12 9 15 18 16 17 17 18 20 22 23 25 27
Wind_Direction
117 109 105 105 94 94 97 97 87 92 64 63 65 73 59 89 118 124 133 129 100 97 109 103 109 104 96 99 108 105 99 100 102 102 103 98 93 92 87 88 91 90 87 84 83 84 80 79 78
107 107 103 93 87 91 99 82 63 58 50 50 66 89 95 103 125 120 127 128 118 113 113 109 108 103 108 115 117 104 101 104 105 108 106 98 95 92 85 87 89 85 82 85 82 81 78 77 76
117 108 99 89 100 117 96 67 45 37 36 36 55 98 114 123 137 128 132 126 121 121 119 113 111 110 118 120 115 108 108 111 114 114 108 102 99 92 91 91 86 84 79 77 78 81 80 78 77
111 105 95 90 91 102 86 61 44 39 31 31 26 101 132 129 121 131 140 129 133 127 125 121 123 122 126 123 117 117 120 120 121 118 110 107 101 96 94 91 83 77 72 71 75 75 73 78 82
108 110 102 92 94 95 89 85 70 52 48 49 62 72 135 116 111 112 129 139 137 137 127 127 130 132 130 128 126 126 129 122 121 118 112 109 104 98 90 83 76 74 76 74 77 74 78 78 75
111 101 102 108 116 100 82 70 56 41 50 39 48 88 141 132 127 127 128 137 138 135 128 131 137 135 135 131 134 130 124 123 125 118 117 112 105 97 90 84 81 80 80 74 74 85 78 80 79
89 93 112 118 119 84 58 49 49 43 43 40 49 92 115 133 137 132 135 144 142 136 131 135 138 134 135 138 135 128 127 130 130 125 120 112 106 101 97 92 84 77 72 76 83 90 92 89 84
94 82 123 127 99 77 60 46 50 44 42 41 51 86 102 116 113 129 138 149 142 140 138 139 140 140 141 137 134 136 138 138 134 130 127 118 115 114 109 96 86 77 85 83 90 87 91 87 88
94 76 86 89 96 345 77 53 47 44 48 46 60 76 112 118 118 117 121 126 134 148 144 146 147 145 144 145 145 145 144 144 141 138 130 118 118 118 110 98 96 104 96 103 103 94 90 86 90
106 111 121 67 84 133 95 64 49 43 49 65 64 78 106 129 126 121 123 117 118 135 145 148 146 145 148 153 154 152 153 149 145 142 127 114 117 119 110 123 124 109 98 107 111 103 89 83 79
91 133 84 16 16 42 24 24 47 43 52 54 68 85 98 126 141 137 125 125 131 138 149 153 152 155 157 159 161 158 157 156 151 140 126 120 116 119 126 145 149 133 106 94 101 96 89 82 72
66 72 101 30 22 14 20 12 22 38 51 60 75 85 116 133 143 147 135 138 144 155 163 164 162 164 165 161 163 167 166 165 159 146 135 127 120 119 95 112 146 151 162 118 114 94 93 93 85
81 79 83 47 51 47 19 14 33 30 52 55 73 95 110 150 155 155 148 149 157 171 178 177 173 170 169 169 168 170 172 176 171 165 162 163 167 160 140 131 138 142 145 149 136 113 114 96 75
47 53 69 28 43 44 32 21 359 351 50 90 89 92 133 138 173 178 174 169 172 176 185 190 185 186 186 183 182 179 177 183 181 176 178 172 170 167 153 150 179 172 166 216 208 192 201 220 175
94 119 47 19 12 43 31 6 349 347 337 71 104 116 121 193 210 205 204 191 191 196 197 196 194 188 189 192 191 186 184 177 179 180 173 169 172 177 189 195 196 205 213 226 221 236 245 253 265
113 212 282 322 323 314 284 310 290 330 16 35 39 164 142 157 219 236 221 219 203 206 212 221 213 198 192 190 188 187 189 188 187 190 189 192 199 209 217 221 222 223 228 234 236 239 246 256 260
350 267 277 297 293 324 271 277 283 327 347 354 354 20 331 255 224 233 251 234 222 211 214 218 221 220 199 192 188 191 188 193 197 203 210 213 218 220 221 227 230 232 234 240 242 239 244 252 258
338 329 303 278 290 294 244 253 267 321 315 317 317 338 359 281 251 238 233 251 247 231 219 223 219 212 210 203 203 200 201 205 211 217 223 225 228 233 238 239 242 243 238 241 251 253 254 249 245
50 88 54 29 304 196 216 258 288 343 336 348 332 306 303 304 277 269 256 249 242 244 232 224 226 220 213 211 213 214 211 211 216 222 224 229 234 239 247 254 254 254 254 252 251 250 255 272 237
76 98 55 52 66 127 63 107 162 317 318 323 331 335 311 289 291 290 286 261 252 243 243 239 230 232 229 221 220 227 229 231 233 232 233 237 241 246 249 252 255 257 253 252 251 254 239 242 267
32 68 25 23 54 51 34 119 225 239 272 289 311 318 322 315 298 296 303 300 266 254 243 243 243 238 233 238 233 229 231 231 232 234 237 241 247 251 254 257 257 260 263 262 260 256 255 228 264
4 1 334 345 2 350 305 279 264 258 274 286 292 299 304 309 308 301 297 296 284 260 247 241 246 245 243 240 240 242 239 241 245 246 251 254 257 256 254 258 261 265 265 260 266 257 226 246 235
318 311 314 309 311 328 316 246 270 269 274 273 277 287 289 296 298 295 294 291 290 275 255 251 242 251 247 243 240 243 246 247 248 254 255 254 255 258 261 262 262 264 262 280 266 238 265 219 249
334 334 334 327 330 359 304 275 290 267 261 264 274 284 288 287 289 289 285 284 279 278 261 253 251 252 251 245 241 237 240 244 250 251 253 256 262 265 263 261 260 263 271 263 246 238 227 238 244
355 359 15 13 346 314 334 325 281 279 275 272 272 268 277 281 275 285 290 286 281 272 261 264 255 247 244 255 252 241 243 247 254 256 256 255 262 266 263 261 259 259 252 263 252 229 231 244 253
345 352 352 320 313 310 340 350 317 300 285 278 278 272 266 272 266 282 296 295 285 276 264 255 255 262 253 248 243 239 246 253 251 256 259 258 259 258 260 260 258 255 258 257 246 237 246 253 265
336 340 336 343 321 344 324 321 346 336 317 287 264 255 264 265 268 278 287 289 295 291 274 277 260 257 261 278 241 236 233 249 253 261 265 260 264 255 282 282 263 266 257 258 219 254 266 268 269
331 331 338 326 325 313 314 317 320 322 320 305 280 258 249 250 260 270 279 285 301 290 284 286 266 236 268 292 277 269 259 257 248 256 265 270 305 290 328 292 245 239 251 292 311 270 259 262 265
325 326 332 327 326 322 331 319 312 326 324 317 294 274 257 249 249 253 265 277 284 282 285 283 283 296 289 290 274 272 260 261 287 294 322 340 342 344 318 303 313 311 299 276 267 265 263 260 259
321 325 326 319 318 308 317 335 323 328 326 321 310 301 272 254 243 244 254 265 262 262 270 280 270 265 273 280 285 288 301 293 315 313 341 334 327 319 304 296 287 276 266 263 262 261 259 262 265
Height
5913 5913 5914 5914 5917 5915 5914 5914 5911 5910 5909 5908 5907 5907 5907 5906 5907 5911 5910 5910 5911 5911 5912 5911 5913 5913 5915 5916 5917 5918 5917 5918 5920 5921 5921 5921 5920 5921 5922 5922 5922 5922 5921 5920 5919 5918 5917 5915 5914
5914 5914 5915 5915 5917 5917 5915 5914 5913 5911 5909 5908 5907 5907 5907 5907 5907 5909 5910 5912 5912 5913 5912 5914 5914 5916 5917 5917 5918 5919 5919 5920 5921 5923 5923 5922 5923 5924 5924 5924 5923 5923 5922 5922 5921 5920 5919 5917 5916
5914 5916 5917 5917 5918 5918 5917 5915 5912 5911 5909 5908 5908 5907 5908 5907 5908 5909 5911 5912 5914 5914 5914 5916 5917 5917 5919 5919 5920 5920 5921 5922 5924 5924 5924 5924 5925 5926 5926 5926 5925 5925 5925 5924 5923 5922 5922 5920 5920
5915 5918 5919 5919 5919 5919 5918 5917 5915 5911 5909 5908 5908 5908 5908 5908 5908 5910 5911 5914 5915 5916 5917 5918 5918 5920 5920 5921 5921 5922 5923 5924 5925 5925 5925 5926 5927 5927 5928 5928 5927 5927 5926 5926 5925 5925 5924 5924 5923
5918 5919 5919 5920 5922 5922 5920 5920 5918 5915 5913 5911 5909 5909 5908 5909 5910 5910 5912 5913 5915 5916 5917 5919 5920 5922 5922 5923 5924 5924 5925 5926 5927 5927 5928 5928 5929 5929 5930 5929 5929 5929 5928 5928 5927 5926 5926 5926 5926
5919 5920 5922 5922 5923 5923 5923 5922 5920 5917 5915 5913 5911 5909 5910 5910 5911 5912 5913 5914 5916 5916 5917 5919 5921 5922 5923 5925 5926 5927 5928 5929 5929 5929 5930 5930 5930 5931 5932 5932 5931 5931 5930 5929 5928 5928 5929 5929 5928
5921 5923 5923 5924 5925 5926 5924 5922 5920 5919 5916 5915 5913 5911 5912 5911 5911 5913 5914 5915 5916 5917 5918 5920 5923 5924 5925 5926 5928 5929 5930 5930 5930 5931 5932 5932 5932 5933 5932 5933 5933 5932 5931 5931 5931 5931 5930 5931 5930
5925 5925 5925 5925 5926 5927 5926 5924 5921 5920 5918 5917 5916 5915 5914 5914 5914 5914 5915 5915 5917 5918 5920 5922 5924 5925 5926 5929 5930 5931 5931 5931 5931 5933 5933 5934 5933 5933 5933 5933 5933 5933 5933 5933 5932 5932 5932 5932 5932
5927 5927 5927 5927 5928 5927 5926 5925 5923 5921 5921 5920 5918 5918 5918 5918 5917 5917 5917 5918 5919 5920 5922 5923 5925 5927 5928 5930 5931 5932 5932 5933 5934 5935 5936 5936 5935 5935 5935 5935 5935 5935 5935 5934 5933 5933 5934 5934 5933
5928 5929 5929 5929 5929 5928 5927 5927 5925 5924 5923 5922 5921 5921 5921 5920 5920 5920 5920 5921 5922 5923 5924 5925 5927 5929 5930 5932 5932 5933 5933 5934 5936 5936 5937 5937 5937 5937 5936 5936 5936 5935 5935 5935 5935 5935 5935 5934 5934
5929 5930 5930 5930 5930 5929 5928 5928 5927 5926 5925 5924 5923 5922 5922 5922 5922 5921 5922 5922 5923 5924 5926 5927 5929 5930 5931 5933 5934 5935 5936 5936 5936 5937 5937 5937 5937 5937 5937 5936 5937 5936 5936 5936 5936 5936 5935 5935 5935
5931 5931 5931 5931 5931 5930 5929 5929 5929 5927 5926 5925 5924 5924 5924 5924 5924 5925 5923 5923 5924 5925 5927 5928 5929 5930 5932 5933 5935 5936 5937 5938 5938 5939 5938 5938 5937 5936 5936 5936 5937 5937 5937 5938 5936 5935 5935 5934 5934
5932 5932 5932 5932 5931 5930 5930 5930 5929 5928 5927 5927 5926 5925 5925 5925 5925 5926 5927 5925 5925 5927 5929 5930 5930 5931 5932 5933 5935 5935 5936 5936 5937 5937 5937 5936 5935 5934 5934 5935 5935 5935 5936 5937 5936 5936 5935 5934 5933
5933 5933 5932 5932 5932 5930 5930 5930 5930 5929 5928 5927 5927 5927 5927 5927 5927 5927 5927 5928 5927 5927 5928 5930 5930 5931 5932 5933 5933 5933 5933 5934 5935 5936 5936 5937 5937 5936 5936 5936 5937 5937 5937 5936 5936 5935 5935 5934 5933
5933 5934 5934 5933 5933 5932 5932 5931 5930 5930 5929 5927 5927 5927 5927 5928 5928 5928 5928 5929 5929 5929 5930 5930 5930 5930 5931 5932 5933 5933 5933 5933 5934 5936 5936 5937 5936 5936 5936 5936 5936 5936 5935 5935 5934 5934 5933 5933 5932
5934 5934 5934 5934 5934 5934 5933 5933 5932 5931 5929 5927 5927 5927 5927 5927 5927 5927 5928 5929 5929 5929 5930 5931 5931 5930 5930 5930 5931 5932 5933 5934 5934 5934 5934 5934 5935 5935 5935 5935 5934 5934 5934 5933 5932 5931 5930 5930 5929
5934 5935 5935 5934 5934 5934 5934 5933 5932 5931 5929 5927 5926 5926 5927 5927 5927 5927 5928 5928 5929 5928 5928 5929 5930 5931 5930 5931 5930 5930 5930 5931 5931 5932 5932 5932 5932 5932 5931 5931 5930 5930 5930 5930 5929 5928 5928 5927 5927
5933 5931 5931 5932 5932 5933 5932 5932 5931 5930 5929 5928 5926 5925 5924 5925 5926 5927 5927 5927 5928 5928 5927 5927 5927 5928 5929 5930 5929 5928 5927 5927 5928 5928 5928 5928 5928 5928 5927 5927 5927 5927 5927 5926 5926 5926 5925 5924 5923
5931 5931 5931 5931 5930 5931 5931 5931 5930 5929 5929 5928 5926 5924 5923 5923 5924 5924 5925 5926 5926 5926 5926 5925 5925 5926 5926 5926 5927 5926 5924 5923 5923 5923 5922 5922 5923 5922 5923 5923 5923 5923 5923 5924 5922 5923 5923 5919 5920
5931 5932 5933 5932 5930 5930 5930 5930 5930 5929 5928 5927 5926 5924 5923 5922 5921 5922 5922 5922 5922 5922 5922 5923 5923 5923 5923 5922 5922 5924 5924 5923 5922 5920 5919 5918 5918 5918 5917 5917 5918 5920 5919 5918 5918 5919 5918 5917 5917
5932 5933 5933 5932 5931 5931 5931 5930 5929 5928 5927 5925 5925 5924 5922 5921 5919 5918 5918 5918 5918 5918 5917 5917 5918 5918 5919 5919 5919 5917 5917 5917 5916 5915 5914 5914 5914 5914 5913 5913 5914 5914 5914 5915 5912 5912 5912 5910 5913
5933 5932 5932 5931 5931 5932 5932 5933 5931 5929 5928 5926 5925 5924 5922 5920 5918 5916 5913 5914 5913 5912 5912 5912 5913 5914 5913 5914 5914 5913 5911 5911 5911 5910 5911 5910 5909 5909 5908 5908 5908 5907 5907 5908 5904 5901 5903 5902 5907
5933 5931 5931 5930 5930 5930 5930 5931 5931 5928 5926 5924 5923 5922 5921 5919 5916 5914 5911 5908 5909 5907 5907 5908 5907 5908 5908 5907 5907 5907 5905 5904 5904 5907 5907 5906 5904 5903 5903 5904 5902 5901 5900 5899 5900 5899 5894 5895 5901
5931 5930 5930 5929 5929 5933 5927 5928 5932 5923 5922 5920 5919 5918 5916 5915 5912 5909 5906 5903 5903 5902 5902 5902 5902 5902 5902 5900 5900 5900 5899 5899 5900 5902 5900 5899 5899 5899 5898 5897 5897 5895 5893 5891 5892 5893 5894 5893 5894
5929 5928 5934 5933 5934 5932 5925 5924 5923 5918 5917 5916 5914 5913 5912 5910 5907 5904 5901 5898 5897 5895 5896 5895 5891 5895 5895 5887 5893 5893 5894 5896 5898 5897 5895 5893 5891 5890 5890 5889 5889 5888 5889 5884 5885 5885 5889 5889 5889
5929 5928 5929 5929 5931 5927 5920 5920 5922 5913 5911 5909 5908 5907 5906 5905 5902 5900 5896 5894 5890 5890 5889 5889 5886 5887 5886 5888 5883 5886 5890 5890 5889 5887 5884 5883 5881 5879 5878 5879 5878 5879 5877 5880 5878 5878 5882 5881 5881
5928 5926 5926 5923 5924 5920 5923 5917 5913 5908 5904 5902 5900 5900 5899 5899 5897 5895 5892 5889 5886 5886 5882 5880 5879 5879 5880 5877 5877 5876 5880 5882 5880 5879 5876 5871 5868 5867 5866 5865 5866 5868 5870 5871 5868 5874 5877 5875 5874
5925 5924 5921 5920 5918 5917 5916 5911 5911 5905 5901 5896 5892 5891 5891 5890 5889 5888 5886 5884 5882 5880 5877 5875 5871 5864 5870 5873 5874 5873 5872 5869 5866 5859 5855 5854 5857 5857 5859 5858 5857 5859 5860 5860 5862 5866 5869 5870 5869
5921 5919 5917 5915 5912 5910 5908 5909 5902 5899 5895 5890 5885 5882 5880 5881 5880 5881 5881 5879 5877 5874 5872 5870 5866 5861 5864 5866 5866 5862 5857 5856 5858 5853 5851 5852 5852 5852 5855 5854 5854 5855 5855 5858 5859 5861 5862 5862 5862
5917 5915 5913 5911 5910 5907 5902 5901 5893 5890 5886 5882 5878 5875 5872 5871 5872 5873 5873 5873 5872 5870 5869 5867 5864 5863 5864 5862 5859 5851 5849 5848 5846 5848 5846 5849 5848 5850 5852 5850 5851 5852 5852 5853 5854 5855 5855 5855 5854